Wetbulb
70.75 72.50 76.00 77.26 77.82 77.91 77.82 77.84 77.80 77.76 77.27 77.92 77.87 78.20 78.16 78.40 78.06 78.22 78.18 78.52 78.18 78.30 78.53 78.10 77.95 77.85 77.85 78.18 78.29 77.67 77.47 77.43 76.72 75.67 75.87 75.91 76.38 76.46 76.52 77.05 75.67 73.28 75.66
72.36 74.29 77.59 78.53 78.96 78.37 78.14 77.66 77.62 77.73 77.39 77.47 78.30 78.29 78.24 78.32 77.91 77.91 77.97 78.32 78.22 78.00 78.64 78.56 77.60 77.56 77.86 77.83 78.08 76.86 76.52 76.99 77.03 76.86 76.20 76.48 76.61 76.93 76.92 77.37 76.99 75.41 76.27
73.56 75.15 76.63 78.73 79.15 78.55 78.35 77.80 77.73 77.63 77.45 77.20 78.04 78.44 78.33 78.00 77.84 77.91 78.45 78.60 78.50 78.52 78.10 77.34 77.53 77.41 77.68 77.31 77.79 77.43 76.79 77.31 77.26 77.46 78.32 74.66 74.73 76.85 77.01 76.13 75.57 75.86 76.46
74.81 74.97 75.71 78.86 79.45 79.25 78.95 78.47 78.13 78.20 77.59 77.67 77.74 78.12 78.59 78.18 78.12 78.22 77.90 78.50 78.45 78.68 77.89 76.90 76.87 77.03 77.49 77.39 77.08 77.19 77.29 76.72 76.66 77.02 75.41 72.58 72.48 75.86 75.39 75.11 74.70 75.96 75.27
74.90 75.75 77.31 79.46 79.56 79.15 79.16 79.01 78.56 78.49 78.34 78.31 78.02 77.68 78.34 78.23 78.08 78.18 78.18 77.94 78.31 78.35 77.67 77.12 76.78 76.86 77.13 77.17 77.19 76.08 75.78 75.34 75.11 75.01 74.58 70.86 70.12 74.23 75.89 76.32 75.82 75.66 76.62
74.93 76.74 78.71 79.71 79.71 79.27 78.90 78.80 78.58 78.55 78.55 78.45 78.22 78.08 78.19 78.48 78.38 78.31 77.77 77.52 77.38 77.34 77.36 77.14 76.81 76.92 77.31 76.68 76.41 75.81 76.14 75.97 75.18 74.39 73.27 72.94 70.67 76.18 76.40 76.32 75.55 75.16 74.40
76.11 76.72 77.87 79.43 79.30 79.34 79.16 79.10 78.84 78.58 78.78 78.77 78.39 77.84 78.36 78.33 78.51 78.24 77.60 77.40 77.56 77.69 77.42 77.39 77.03 76.67 76.61 76.46 76.29 75.90 75.86 75.59 75.13 74.20 74.74 72.41 74.09 76.92 76.32 75.80 74.42 75.57 75.88
76.22 75.81 77.08 78.84 79.33 79.46 79.25 78.75 78.86 78.80 78.55 78.45 78.45 78.03 77.60 78.36 78.48 78.29 78.08 77.35 76.72 76.86 77.12 77.56 76.92 76.72 76.28 76.54 75.61 75.55 75.61 75.34 76.39 74.22 74.07 74.88 76.75 77.44 76.63 75.81 75.24 74.57 74.19
75.60 76.02 76.78 76.77 78.07 78.83 79.13 79.00 78.72 78.68 78.11 78.51 78.37 78.24 78.32 78.11 77.57 77.75 78.20 77.93 76.99 76.91 76.55 76.22 76.61 76.31 76.11 76.24 75.44 75.84 76.51 77.20 75.37 74.54 73.46 73.70 76.29 76.48 75.58 75.27 75.76 75.97 75.61
74.93 75.21 75.81 76.81 77.17 76.81 76.90 78.72 78.61 78.57 78.47 77.81 78.02 77.86 77.51 77.03 77.09 77.19 77.63 77.61 76.85 76.68 76.33 76.36 76.42 76.66 76.59 76.21 75.88 76.58 77.02 76.85 74.72 74.19 74.00 74.19 76.61 76.26 75.10 73.90 74.06 74.94 74.38
74.98 74.76 75.64 76.24 76.78 77.19 77.25 77.64 78.61 78.26 77.90 77.53 77.42 77.64 77.82 75.69 75.97 76.28 77.07 77.32 76.83 76.63 76.47 76.60 76.93 77.44 77.43 76.52 76.17 76.95 76.73 74.42 74.13 72.97 72.18 76.76 76.93 76.97 76.44 75.55 74.72 74.50 74.27
73.74 74.16 74.82 75.36 75.75 76.32 74.84 77.58 77.00 76.95 76.52 76.89 76.88 77.08 76.89 76.90 76.01 76.12 76.91 76.91 76.68 76.51 76.75 76.92 77.43 76.85 76.28 74.81 74.84 76.19 74.78 73.68 74.32 71.88 72.35 76.68 77.32 77.21 77.58 76.49 75.68 74.89 73.89
74.64 74.66 75.11 74.63 75.26 75.07 74.98 75.78 75.81 75.94 76.58 77.04 76.70 77.52 76.39 76.48 75.33 76.92 76.09 75.52 75.23 75.35 75.01 75.86 76.16 75.49 74.03 74.34 73.86 72.81 72.97 73.18 72.96 73.34 73.79 76.65 76.94 77.68 77.46 76.86 76.08 75.14 74.63
73.71 74.95 75.35 75.69 75.34 75.08 76.30 75.53 76.09 75.60 75.96 75.63 75.88 77.06 76.67 75.71 73.59 76.18 76.29 76.00 76.43 75.10 73.75 73.95 74.37 73.65 72.78 73.27 73.09 73.06 72.84 73.17 71.81 74.66 74.19 76.36 76.16 76.88 77.05 76.95 76.39 75.42 75.00
73.48 74.70 75.55 76.31 76.33 75.84 77.75 76.25 75.65 75.74 76.01 75.84 75.36 77.55 77.31 78.40 76.42 74.32 76.46 76.06 75.77 75.53 74.22 74.54 74.65 73.76 73.74 74.20 74.19 74.35 74.10 74.16 73.78 74.86 75.06 77.11 76.88 76.76 77.19 76.97 76.93 75.84 76.06
74.33 75.09 76.08 77.44 76.70 77.33 76.95 77.89 76.98 76.42 73.24 76.47 76.00 76.72 76.98 75.15 77.69 75.46 75.91 75.10 73.66 74.52 74.30 75.20 75.18 74.98 74.83 74.12 72.94 73.61 73.45 74.68 74.34 74.98 75.86 76.18 76.68 77.16 77.35 77.63 77.27 76.91 76.50
75.04 75.92 75.98 76.81 77.92 77.77 77.77 77.55 78.13 76.66 75.01 76.51 76.28 77.16 75.64 76.06 74.66 75.20 74.91 74.79 74.60 75.35 74.82 76.48 75.82 75.00 74.99 75.34 72.72 72.25 74.32 75.04 74.57 75.72 74.31 74.35 75.15 77.46 77.21 77.66 77.65 77.29 77.41
75.70 75.84 76.75 76.21 77.27 77.74 77.78 77.46 77.00 75.70 75.81 76.15 76.65 77.40 75.68 75.18 76.36 75.91 75.25 74.93 75.97 75.20 74.40 75.68 74.17 74.23 74.04 73.19 72.62 72.33 72.61 73.30 75.17 74.87 75.95 75.55 76.28 75.59 76.80 77.41 77.56 77.39 77.53
77.14 76.89 77.57 77.15 77.26 77.17 77.17 78.38 77.93 77.98 77.85 74.89 76.15 77.45 76.49 75.35 76.07 75.22 74.57 74.04 76.12 75.13 74.07 73.62 72.88 73.62 72.79 72.01 71.93 72.39 72.98 73.74 73.96 73.70 74.62 75.10 76.40 74.78 74.95 76.08 77.19 76.73 77.47
77.23 76.62 77.60 77.45 76.73 77.71 77.67 77.59 76.54 76.35 76.08 75.74 75.79 75.69 77.50 76.50 75.80 75.47 75.16 74.05 75.37 74.12 73.26 72.36 73.21 73.31 72.62 71.49 70.89 70.63 71.19 72.08 73.04 73.73 74.01 74.60 74.77 75.44 75.59 75.99 75.18 75.48 77.02
77.30 77.47 76.94 76.60 76.52 76.38 75.71 75.16 75.20 73.28 74.58 74.91 75.21 77.88 76.82 76.01 76.59 76.35 74.43 76.34 75.39 73.85 73.93 72.63 73.06 73.84 72.48 73.16 71.56 70.68 72.13 72.10 72.38 72.23 72.46 72.23 73.48 75.67 75.51 75.78 75.57 75.14 75.48
76.55 77.67 77.50 77.16 77.74 76.69 75.72 76.15 75.70 75.15 74.63 74.95 75.64 76.33 76.63 76.39 76.34 76.17 74.91 74.77 75.31 74.13 76.57 75.95 74.83 71.57 71.93 72.77 69.71 70.05 67.18 69.05 71.26 71.57 71.84 72.63 72.90 75.01 74.37 75.13 75.92 76.01 75.20
75.53 77.50 77.52 77.04 76.58 77.27 76.83 76.30 76.24 76.09 75.70 73.53 73.94 75.00 76.44 76.45 76.06 75.96 75.36 74.41 76.11 75.30 74.06 74.96 75.35 74.16 70.10 71.00 72.49 69.00 65.88 64.17 67.95 70.23 71.19 71.68 72.90 71.84 72.77 74.80 75.55 76.16 77.05
73.44 75.93 78.15 76.61 74.88 76.73 76.45 75.42 74.95 73.04 72.28 73.35 73.59 74.15 75.57 77.09 76.31 76.27 76.15 74.93 75.73 75.16 74.06 73.16 73.88 72.46 71.02 70.56 71.77 70.40 69.57 71.73 67.16 66.93 70.64 73.40 72.45 69.67 67.85 73.54 75.54 76.39 76.38
73.37 77.23 77.68 77.44 77.56 76.69 76.43 75.08 74.62 74.00 73.25 75.08 74.52 74.54 74.20 75.10 75.78 76.11 75.84 76.25 74.68 75.65 74.82 74.63 73.66 73.03 71.18 71.13 71.28 72.42 70.09 71.54 72.17 69.27 66.57 69.32 71.23 69.19 68.90 73.75 75.18 69.15 70.64
71.36 73.63 77.07 77.35 77.59 77.06 76.57 75.94 74.43 73.68 73.12 73.04 74.15 73.17 73.75 74.46 74.76 75.55 75.89 75.49 75.93 74.98 74.64 75.56 75.30 74.77 73.53 73.01 72.71 72.07 70.70 70.63 70.10 69.70 68.18 68.71 69.00 71.59 73.13 74.83 73.33 72.45 73.46
MSLP
1010.45 1010.58 1011.00 1011.38 1011.73 1011.95 1012.27 1012.56 1012.74 1013.05 1013.35 1013.51 1013.78 1014.09 1014.39 1014.83 1015.23 1015.43 1015.76 1016.02 1016.22 1016.44 1016.59 1016.68 1016.92 1016.97 1017.06 1017.20 1017.32 1017.41 1017.55 1017.68 1017.84 1018.09 1018.16 1018.33 1018.59 1018.83 1018.87 1018.76 1018.88 1019.31 1019.59
1009.54 1010.39 1011.16 1011.51 1011.93 1012.23 1012.53 1012.97 1013.13 1013.42 1013.66 1014.03 1014.28 1014.51 1014.83 1015.01 1015.58 1015.98 1016.07 1016.33 1016.56 1016.84 1017.02 1017.03 1017.28 1017.37 1017.59 1017.69 1017.68 1017.84 1017.96 1018.05 1018.16 1018.37 1018.43 1018.60 1018.86 1018.87 1018.92 1019.05 1019.28 1019.67 1019.84
1009.08 1010.20 1011.04 1011.53 1012.05 1012.54 1012.89 1013.22 1013.51 1013.77 1014.12 1014.50 1014.75 1014.87 1015.26 1015.57 1015.57 1016.47 1016.51 1016.58 1016.84 1017.09 1017.37 1017.46 1017.55 1017.70 1017.88 1017.96 1018.08 1018.04 1018.24 1018.39 1018.48 1018.51 1018.25 1018.60 1019.17 1019.31 1019.35 1019.52 1019.86 1020.01 1020.15
1008.82 1010.11 1010.93 1011.73 1012.20 1012.71 1013.12 1013.47 1013.85 1014.10 1014.46 1014.78 1015.12 1015.41 1015.60 1015.64 1016.11 1016.71 1016.83 1016.86 1017.15 1017.30 1017.60 1017.83 1017.89 1018.02 1018.12 1018.31 1018.31 1018.26 1018.42 1018.62 1018.67 1018.83 1018.35 1018.58 1019.17 1019.76 1019.87 1020.02 1020.25 1020.35 1020.51
1008.92 1009.63 1010.97 1011.72 1012.25 1012.79 1013.25 1013.66 1014.05 1014.39 1014.77 1015.08 1015.40 1015.76 1015.85 1015.99 1016.46 1017.01 1016.94 1017.23 1017.45 1017.57 1017.81 1017.99 1018.11 1018.28 1018.42 1018.57 1018.55 1018.39 1018.49 1018.66 1019.02 1019.07 1018.81 1018.88 1019.48 1020.06 1020.22 1020.37 1020.54 1020.63 1020.62
1008.50 1009.73 1011.39 1011.90 1012.44 1013.00 1013.49 1013.86 1014.27 1014.67 1014.98 1015.32 1015.68 1015.83 1016.04 1016.34 1016.63 1017.19 1017.19 1017.45 1017.74 1017.80 1017.98 1018.17 1018.31 1018.45 1018.69 1018.73 1018.74 1018.60 1018.67 1018.68 1019.06 1019.11 1018.87 1019.23 1019.77 1020.32 1020.46 1020.61 1020.81 1021.00 1021.12
1008.55 1010.37 1011.42 1012.17 1012.68 1013.23 1013.73 1014.14 1014.51 1014.90 1015.22 1015.49 1015.79 1016.07 1016.37 1016.63 1017.01 1017.22 1017.36 1017.64 1017.90 1017.97 1018.08 1018.27 1018.40 1018.65 1018.88 1018.96 1018.89 1018.80 1018.71 1018.89 1018.83 1018.66 1019.03 1019.53 1020.18 1020.46 1020.70 1020.88 1021.09 1021.32 1021.43
1008.87 1010.43 1011.65 1012.37 1012.89 1013.41 1013.89 1014.32 1014.70 1015.05 1015.37 1015.67 1015.90 1016.20 1016.58 1016.88 1017.18 1017.31 1017.58 1017.81 1017.98 1018.05 1018.24 1018.42 1018.59 1018.81 1019.07 1019.11 1019.05 1018.97 1018.79 1018.96 1018.49 1018.47 1019.09 1019.74 1020.28 1020.60 1020.84 1021.08 1021.24 1021.44 1021.63
1009.06 1010.42 1011.68 1012.42 1013.02 1013.47 1013.99 1014.47 1014.83 1015.21 1015.57 1015.90 1016.20 1016.49 1016.74 1017.02 1017.33 1017.57 1017.71 1017.96 1018.21 1018.20 1018.42 1018.66 1018.74 1018.97 1019.19 1019.28 1019.19 1019.01 1018.75 1018.81 1018.76 1018.55 1019.16 1019.87 1020.27 1020.77 1021.01 1021.21 1021.36 1021.53 1021.69
1009.03 1010.45 1011.53 1012.37 1013.09 1013.51 1013.98 1014.52 1014.98 1015.36 1015.64 1015.97 1016.40 1016.72 1016.93 1017.09 1017.31 1017.61 1017.86 1018.02 1018.18 1018.30 1018.57 1018.83 1018.91 1019.09 1019.29 1019.33 1019.23 1018.96 1018.92 1019.00 1018.75 1018.58 1019.03 1019.62 1020.12 1020.68 1021.02 1021.28 1021.46 1021.61 1021.75
1009.09 1010.20 1011.34 1012.15 1012.89 1013.37 1013.83 1014.41 1014.95 1015.38 1015.65 1015.94 1016.35 1016.67 1016.90 1016.98 1017.18 1017.38 1017.71 1017.91 1018.13 1018.34 1018.66 1018.91 1019.01 1019.19 1019.37 1019.36 1019.17 1018.98 1018.97 1018.70 1018.46 1018.23 1018.99 1019.65 1019.89 1020.39 1020.91 1021.18 1021.42 1021.61 1021.80
1008.77 1010.03 1011.05 1011.99 1012.56 1013.09 1013.38 1014.31 1014.70 1015.06 1015.42 1015.76 1016.03 1016.38 1016.52 1016.39 1016.68 1017.02 1017.25 1017.78 1018.04 1018.44 1018.63 1018.87 1019.03 1019.21 1019.26 1018.97 1018.86 1019.02 1018.75 1018.33 1018.40 1018.67 1018.99 1019.63 1019.75 1020.21 1020.69 1021.02 1021.26 1021.49 1021.72
1008.25 1009.34 1010.63 1011.59 1012.23 1012.65 1012.83 1013.95 1014.27 1014.55 1014.80 1015.44 1015.72 1016.02 1016.06 1016.13 1016.38 1016.61 1017.39 1017.77 1018.20 1018.47 1018.70 1018.87 1019.02 1019.01 1018.76 1018.50 1018.33 1018.32 1017.99 1018.16 1018.59 1018.13 1018.73 1019.27 1019.25 1019.91 1020.46 1020.81 1021.07 1021.30 1021.52
1007.94 1008.81 1010.01 1011.00 1011.83 1012.17 1012.75 1013.23 1013.73 1014.15 1014.52 1015.21 1015.64 1015.93 1016.05 1016.26 1016.13 1016.86 1017.42 1017.79 1018.15 1018.35 1018.60 1018.63 1018.55 1018.42 1018.25 1018.13 1018.11 1017.85 1017.61 1017.69 1017.81 1018.52 1018.75 1019.09 1019.07 1019.39 1019.98 1020.44 1020.78 1021.07 1021.29
1007.97 1008.64 1009.53 1010.50 1011.35 1011.80 1012.48 1012.59 1013.01 1013.61 1014.00 1014.43 1015.06 1015.42 1015.73 1016.05 1016.30 1017.09 1017.26 1017.59 1017.87 1018.10 1018.18 1018.29 1018.47 1018.21 1017.99 1017.88 1017.73 1017.74 1017.50 1017.48 1017.75 1018.49 1019.11 1019.62 1019.54 1019.55 1019.56 1020.01 1020.39 1020.74 1021.00
1007.73 1008.47 1009.26 1010.22 1011.05 1011.48 1012.15 1012.56 1012.65 1013.13 1013.62 1014.13 1014.49 1015.04 1015.29 1015.80 1016.23 1016.59 1016.99 1017.33 1017.57 1017.73 1017.87 1017.84 1018.23 1018.26 1017.95 1017.97 1017.85 1017.87 1017.54 1017.55 1017.36 1018.13 1018.42 1019.30 1019.39 1019.57 1019.85 1019.60 1019.97 1020.27 1020.57
1007.33 1008.25 1008.99 1009.94 1010.97 1011.44 1011.97 1012.23 1012.17 1012.25 1013.13 1013.47 1013.88 1014.54 1014.99 1015.44 1015.96 1016.34 1016.72 1016.97 1016.88 1017.08 1017.34 1017.61 1017.89 1018.04 1017.96 1017.74 1018.04 1017.92 1017.78 1017.58 1017.38 1017.45 1017.71 1018.57 1018.45 1018.95 1019.70 1019.82 1019.73 1019.81 1019.96
1007.02 1008.04 1008.78 1009.66 1010.52 1011.26 1011.68 1012.04 1012.02 1012.07 1012.03 1012.56 1013.23 1014.01 1014.65 1014.97 1015.36 1015.85 1016.32 1016.53 1016.51 1016.85 1017.18 1017.58 1017.74 1018.00 1018.04 1018.01 1018.02 1018.01 1017.89 1017.69 1017.44 1017.46 1017.69 1017.92 1018.35 1018.64 1018.93 1019.26 1019.64 1020.10 1019.90
1006.74 1007.77 1008.73 1009.36 1010.15 1011.07 1011.58 1011.86 1011.86 1011.73 1011.90 1012.18 1012.38 1013.11 1013.96 1014.36 1014.84 1015.43 1015.94 1015.97 1016.19 1016.26 1016.74 1017.15 1017.49 1017.60 1017.74 1017.83 1017.78 1017.69 1017.68 1017.75 1017.45 1017.16 1017.34 1017.49 1017.71 1017.95 1018.19 1018.71 1018.82 1019.02 1019.42
1006.60 1007.49 1008.37 1009.23 1009.94 1010.87 1011.57 1012.00 1012.01 1011.90 1011.95 1011.81 1011.90 1012.30 1013.11 1013.73 1014.24 1014.84 1015.19 1015.64 1015.77 1015.97 1016.28 1016.55 1016.70 1016.96 1017.07 1017.33 1017.09 1017.07 1017.28 1017.35 1017.18 1017.16 1017.02 1016.97 1017.00 1017.15 1017.50 1017.71 1018.14 1018.41 1018.47
1006.69 1007.59 1008.14 1008.77 1009.70 1010.53 1011.23 1011.72 1011.75 1011.78 1011.82 1011.81 1011.75 1011.75 1012.51 1013.02 1013.62 1014.24 1014.57 1014.90 1015.04 1015.33 1015.58 1015.98 1016.16 1016.47 1016.59 1016.70 1016.98 1016.94 1017.03 1016.86 1016.92 1016.89 1016.58 1016.41 1016.27 1016.42 1016.55 1017.16 1017.51 1017.72 1017.59
1006.28 1007.02 1007.71 1008.48 1009.18 1010.08 1010.53 1010.94 1011.19 1011.20 1011.30 1011.48 1011.56 1011.48 1012.11 1012.44 1012.98 1013.65 1014.25 1014.46 1014.73 1015.01 1015.28 1015.71 1015.69 1016.02 1016.37 1016.42 1016.82 1016.90 1016.69 1016.59 1016.24 1016.05 1016.02 1016.13 1016.01 1015.69 1015.90 1016.07 1016.42 1016.49 1016.42
1005.85 1006.39 1007.21 1007.98 1008.78 1009.56 1010.07 1010.66 1010.93 1010.92 1010.94 1010.85 1011.08 1011.25 1011.41 1011.73 1012.19 1012.63 1013.19 1013.80 1014.19 1014.48 1014.90 1015.40 1015.66 1015.73 1015.94 1016.12 1016.18 1016.61 1016.56 1016.15 1015.82 1015.42 1015.62 1015.64 1015.65 1015.63 1015.74 1015.28 1015.29 1015.32 1015.44
1005.69 1005.71 1006.96 1007.72 1008.16 1008.55 1009.50 1009.95 1010.39 1010.41 1010.22 1010.19 1010.37 1010.67 1011.01 1011.24 1011.74 1012.11 1012.52 1012.94 1013.55 1014.04 1014.52 1014.87 1015.17 1015.46 1015.81 1015.74 1015.68 1015.77 1015.93 1016.28 1016.24 1015.48 1015.42 1015.72 1015.76 1015.38 1015.09 1015.10 1014.58 1014.75 1015.05
1006.00 1006.02 1006.91 1007.57 1008.00 1008.43 1008.97 1009.39 1009.71 1009.93 1009.96 1009.67 1009.71 1009.99 1010.28 1010.79 1011.07 1011.52 1011.96 1012.46 1012.98 1013.31 1013.82 1014.21 1014.62 1015.08 1015.29 1015.60 1015.47 1015.37 1015.54 1015.77 1015.85 1016.14 1015.93 1015.73 1015.94 1015.44 1014.84 1014.76 1014.41 1015.37 1015.45
1006.47 1006.46 1006.80 1007.52 1007.97 1008.29 1008.67 1009.08 1009.37 1009.43 1009.42 1009.45 1009.20 1009.26 1009.50 1009.79 1010.36 1010.84 1011.22 1011.87 1012.38 1012.83 1013.07 1013.46 1013.92 1014.36 1014.76 1015.06 1015.22 1015.36 1015.28 1015.39 1015.40 1015.56 1015.93 1015.79 1015.74 1015.24 1014.79 1014.44 1015.10 1015.73 1016.16
Wind_Speed
12 16 12 9 11 14 15 15 17 16 17 18 19 19 20 19 18 18 17 16 16 14 15 15 15 15 15 15 16 16 16 16 17 16 17 17 14 11 9 13 18 14 15
22 18 13 11 15 14 14 14 16 16 18 17 18 18 17 20 18 15 16 15 14 13 13 14 14 14 14 13 13 14 13 12 14 16 18 17 14 11 11 17 19 14 15
22 18 15 16 17 16 15 16 17 18 18 17 17 18 16 17 18 13 13 14 13 13 13 13 13 13 13 12 10 11 11 11 11 15 19 11 10 15 16 18 16 14 15
21 18 17 18 17 16 16 17 18 18 18 18 17 16 17 17 15 13 14 13 12 13 12 11 12 11 11 10 11 8 8 7 8 9 1 11 12 12 15 15 14 14 14
20 18 17 18 18 18 16 16 18 17 17 16 17 16 15 16 14 11 13 12 11 11 11 10 10 11 10 10 7 4 5 5 4 4 5 10 7 10 13 13 12 12 14
20 21 18 18 18 18 17 16 17 16 17 16 15 15 15 14 14 10 12 11 10 10 10 10 10 10 11 10 6 3 2 4 3 5 3 12 9 10 10 14 13 12 13
21 20 18 18 18 18 17 16 16 16 15 16 15 14 13 12 12 11 10 10 9 8 9 8 10 9 8 6 5 4 5 5 8 3 9 12 10 10 12 13 12 10 11
23 20 17 18 17 17 16 17 15 15 14 14 15 14 13 12 11 10 9 8 7 7 5 6 8 8 7 6 3 6 6 6 9 6 11 10 11 11 12 11 10 10 10
22 19 14 15 15 17 15 15 15 15 14 14 13 13 12 11 11 9 9 8 7 6 5 6 7 7 7 6 4 7 9 10 8 3 13 8 13 11 10 9 7 8 9
19 17 15 14 12 12 12 14 13 13 14 14 13 14 12 11 10 9 9 7 6 6 5 7 8 8 8 7 5 10 10 11 9 2 10 9 16 13 10 9 7 6 6
18 17 15 14 12 10 11 12 13 14 14 14 11 12 10 7 8 10 10 13 9 7 7 7 8 8 9 8 9 10 10 5 7 4 7 18 17 14 11 10 8 7 7
20 19 16 14 13 12 11 11 10 10 8 8 8 9 7 7 7 10 9 13 10 10 9 9 9 10 10 7 6 9 5 7 3 4 7 16 16 13 12 11 9 9 8
19 15 18 15 13 12 10 9 6 6 6 5 8 7 8 3 2 3 4 5 5 9 5 6 7 6 9 7 5 6 8 7 1 6 12 18 18 15 14 12 10 10 9
15 17 19 18 15 13 10 9 9 7 6 6 6 7 4 3 6 3 3 4 4 4 6 7 6 8 8 8 6 7 7 4 3 1 8 17 17 18 15 13 12 11 10
14 14 18 17 15 11 9 9 9 9 9 10 9 9 5 4 4 5 4 4 5 5 4 5 4 5 4 4 4 6 3 5 6 4 4 9 11 14 16 15 13 13 11
15 13 15 16 15 11 9 8 8 8 6 10 9 9 9 5 4 6 5 4 5 6 5 4 3 4 3 4 3 5 6 5 4 9 6 5 8 11 13 16 14 14 13
15 13 15 15 17 13 12 9 6 6 9 9 10 12 12 9 7 6 6 5 5 6 6 3 2 2 3 2 3 5 5 6 6 4 5 7 6 14 13 13 14 15 15
16 13 12 14 15 13 9 9 8 6 5 5 9 10 13 10 10 5 6 5 6 6 6 4 4 4 4 3 5 5 5 6 6 4 4 2 6 7 13 16 13 12 14
13 13 10 12 13 14 11 7 7 7 4 6 7 10 14 12 11 8 7 8 7 6 7 8 6 7 6 5 6 5 4 5 6 6 7 6 6 7 5 11 17 19 19
9 13 13 8 10 12 8 8 8 6 6 6 6 9 15 11 12 10 7 11 7 8 7 7 7 7 6 8 7 7 7 6 5 4 4 7 7 7 10 9 9 10 20
10 12 11 11 11 11 10 10 9 10 8 7 7 6 15 11 11 9 7 5 8 6 5 10 7 5 4 2 3 4 4 8 9 7 7 6 6 6 6 11 7 7 10
13 14 14 12 11 13 11 9 9 8 9 9 7 7 13 13 13 11 10 7 9 6 4 2 4 4 4 5 3 3 4 4 7 9 6 5 5 5 6 7 13 11 6
6 13 15 15 12 14 12 9 8 7 7 7 9 7 9 14 15 15 14 12 8 7 7 5 5 5 7 7 8 5 3 4 4 6 8 7 1 1 4 5 6 6 7
5 4 14 12 14 15 17 11 13 11 11 10 10 10 8 10 12 13 13 14 10 9 8 8 7 7 4 4 4 8 9 1 3 2 2 3 2 1 5 6 5 5 8
10 12 11 11 13 14 13 16 11 14 12 9 9 12 13 13 14 14 15 12 13 9 11 10 10 10 8 5 5 3 7 4 6 3 2 2 2 5 6 9 4 2 6
6 7 9 10 10 11 12 15 17 15 14 13 11 10 10 10 13 16 16 14 12 12 11 11 11 11 11 10 8 6 6 4 5 5 4 5 6 5 8 5 5 3 9
Wind_Direction
143 145 148 167 140 130 132 130 132 131 126 119 114 111 109 104 102 102 103 101 103 98 92 89 90 91 90 88 88 90 91 94 96 99 102 101 101 103 122 124 105 101 102
150 148 171 147 137 132 125 125 123 125 120 120 122 115 112 113 107 106 107 104 102 98 93 93 94 94 91 90 96 100 107 112 116 114 107 98 92 78 102 95 93 107 100
139 141 154 144 139 138 132 124 127 124 125 126 124 122 121 116 114 116 110 106 106 105 95 93 94 95 99 101 100 114 123 127 134 144 136 108 89 86 90 95 104 104 106
135 148 140 142 138 136 132 131 132 130 131 128 126 121 126 120 117 123 115 108 106 105 104 100 98 97 98 102 109 131 131 141 155 176 189 122 102 98 96 101 111 107 102
141 140 133 143 139 139 137 135 136 137 135 131 131 127 120 119 122 124 116 112 111 109 108 106 103 102 107 111 111 155 157 172 153 242 259 107 105 118 118 119 125 127 111
151 126 138 141 140 142 140 139 137 141 138 137 137 131 123 123 126 130 121 120 121 120 118 113 109 109 110 116 122 230 280 276 214 160 124 104 99 123 129 99 98 105 109
124 129 138 141 142 142 143 142 140 144 140 136 138 133 132 134 132 129 125 127 128 124 119 121 121 120 124 131 146 256 279 311 296 248 107 104 113 117 115 111 112 114 115
122 138 140 138 140 141 143 143 144 144 142 144 144 144 144 146 145 137 133 134 137 128 129 120 126 128 134 141 163 259 278 293 304 163 116 111 115 116 118 120 126 134 131
132 128 139 146 142 142 144 146 147 146 152 149 151 155 160 155 154 153 153 151 154 135 123 132 142 145 142 153 180 263 276 293 307 143 116 121 126 131 131 129 124 128 146
132 135 144 143 152 154 152 151 153 156 154 159 162 166 167 167 168 177 159 162 168 138 150 167 150 152 154 160 198 251 276 295 272 269 123 134 142 143 145 144 147 141 139
132 140 147 148 155 161 154 158 159 160 162 166 171 172 171 186 184 183 196 168 177 160 178 186 164 161 170 184 222 253 278 268 273 137 119 145 145 148 158 157 160 164 170
142 147 149 155 159 163 165 147 166 167 174 179 180 173 206 208 175 187 175 164 167 179 181 184 178 179 190 196 215 234 251 259 275 151 131 152 146 154 175 170 173 179 189
151 155 152 159 162 178 152 159 175 175 172 168 198 172 216 152 183 166 129 159 167 182 182 188 187 206 208 240 206 193 227 218 165 139 149 164 151 157 168 179 182 188 193
171 157 158 159 164 187 148 167 166 185 184 160 194 195 243 140 178 154 147 175 161 180 200 202 196 212 232 221 232 239 218 183 50 204 159 170 161 164 175 183 187 193 200
172 169 162 160 165 178 163 172 177 196 185 180 184 180 185 172 188 154 182 200 181 187 208 223 286 232 230 282 286 314 309 328 138 131 132 197 173 177 177 186 191 198 204
168 180 164 157 161 174 174 208 194 175 211 174 182 175 172 181 187 165 191 198 221 176 198 210 225 278 215 232 233 298 277 284 222 140 141 162 188 195 204 187 193 197 206
166 181 166 165 165 182 183 180 211 212 157 173 180 172 178 181 178 191 189 216 219 178 166 213 200 288 271 279 241 276 284 283 298 159 147 171 218 196 205 211 200 202 204
162 177 178 171 170 180 193 171 213 224 188 182 181 157 174 183 170 196 187 208 230 158 171 188 203 194 214 251 206 226 207 267 281 249 243 162 191 171 203 204 208 229 220
159 167 183 175 170 176 187 214 215 202 198 221 169 174 173 179 175 178 199 211 219 191 175 184 208 205 191 221 225 214 238 227 238 242 205 232 191 173 194 188 203 210 220
148 165 177 171 175 166 184 209 210 226 223 204 222 176 173 182 173 183 213 208 198 187 199 202 201 189 206 208 229 197 202 218 252 241 240 215 224 198 186 186 204 218 218
165 167 177 172 171 173 192 203 208 210 207 220 215 171 168 174 184 193 222 206 194 200 214 189 195 211 214 209 197 263 211 213 215 215 230 246 238 190 220 180 192 213 218
179 179 177 180 172 182 190 205 215 201 216 210 219 192 174 177 182 188 208 224 192 203 220 287 210 175 206 203 219 256 238 234 212 213 221 240 258 205 211 211 192 209 215
217 192 181 177 183 188 194 202 220 232 224 196 211 221 190 184 185 189 192 219 194 196 208 196 220 205 201 213 192 207 227 238 225 210 204 211 181 24 317 240 192 207 199
6 260 163 185 187 186 200 208 220 221 224 219 203 206 199 194 195 195 197 206 214 194 208 203 195 213 209 218 200 210 242 42 292 348 134 119 87 254 276 275 246 209 202
355 126 171 190 198 206 198 208 216 222 221 226 223 203 198 198 208 208 204 204 210 198 204 205 201 204 212 218 238 191 227 217 204 244 266 189 168 238 244 252 200 50 314
9 3 172 191 214 221 219 220 227 228 236 233 216 215 204 195 201 210 209 207 212 214 213 198 199 202 210 219 227 223 217 197 210 209 218 254 254 222 230 233 121 102 356